Time,TemperatureF,DewpointF,PressureIn,WindDirection,WindDirectionDegrees,WindSpeedMPH,WindSpeedGustMPH,Humidity,HourlyPrecipIn,Conditions,Clouds,dailyrainin,SoftwareType,DateUTC
2013-06-01 00:07:00,87.1,37.0,29.70,NNE,30,1.0,3.0,17,0.00,,,0.00,weatherlink.com 1.10,2013-06-01 07:07:00,
2013-06-01 00:22:00,85.7,35.0,29.70,NNE,30,4.0,5.0,16,0.00,,,0.00,weatherlink.com 1.10,2013-06-01 07:22:00,
2013-06-01 00:37:00,84.3,35.0,29.70,NNE,30,3.0,4.0,17,0.00,,,0.00,weatherlink.com 1.10,2013-06-01 07:37:00,
2013-06-01 00:52:00,83.8,35.0,29.70,NE,34,3.0,6.0,17,0.00,,,0.00,weatherlink.com 1.10,2013-06-01 07:52:00,
2013-06-01 01:07:00,83.2,35.0,29.70,NE,36,2.0,6.0,18,0.00,,,0.00,weatherlink.com 1.10,2013-06-01 08:07:00,
2013-06-01 01:22:00,83.1,35.0,29.70,NNE,17,5.0,5.0,18,0.00,,,0.00,weatherlink.com 1.10,2013-06-01 08:22:00,
2013-06-01 01:38:00,82.4,35.0,29.70,NNE,29,3.0,6.0,18,0.00,,,0.00,weatherlink.com 1.10,2013-06-01 08:38:00,
2013-06-01 01:53:00,82.5,36.0,29.70,NE,40,3.0,4.0,19,0.00,,,0.00,weatherlink.com 1.10,2013-06-01 08:53:00,
2013-06-01 02:08:00,81.9,37.0,29.70,NE,55,2.0,5.0,20,0.00,,,0.00,weatherlink.com 1.10,2013-06-01 09:08:00,
2013-06-01 02:23:00,82.5,39.0,29.70,NE,49,3.0,6.0,21,0.00,,,0.00,weatherlink.com 1.10,2013-06-01 09:23:00,
2013-06-01 02:38:00,82.3,39.0,29.70,NNE,21,3.0,6.0,21,0.00,,,0.00,weatherlink.com 1.10,2013-06-01 09:38:00,
2013-06-01 02:53:00,81.9,38.0,29.69,NNW,345,2.0,6.0,21,0.00,,,0.00,weatherlink.com 1.10,2013-06-01 09:53:00,
2013-06-01 03:08:00,80.7,38.0,29.69,NE,39,1.0,5.0,22,0.00,,,0.00,weatherlink.com 1.10,2013-06-01 10:08:00,
2013-06-01 03:23:00,80.0,38.0,29.69,NNE,31,1.0,4.0,22,0.00,,,0.00,weatherlink.com 1.10,2013-06-01 10:23:00,
2013-06-01 03:38:00,80.0,38.0,29.69,NNE,19,2.0,3.0,22,0.00,,,0.00,weatherlink.com 1.10,2013-06-01 10:38:00,
2013-06-01 03:53:00,79.5,36.0,29.69,North,359,2.0,2.0,21,0.00,,,0.00,weatherlink.com 1.10,2013-06-01 10:53:00,
2013-06-01 04:08:00,79.0,35.0,29.69,NNE,22,0.0,2.0,20,0.00,,,0.00,weatherlink.com 1.10,2013-06-01 11:08:00,
2013-06-01 04:23:00,78.2,35.0,29.69,NNW,345,0.0,2.0,21,0.00,,,0.00,weatherlink.com 1.10,2013-06-01 11:23:00,
2013-06-01 04:38:00,78.3,34.0,29.70,NE,41,0.0,3.0,20,0.00,,,0.00,weatherlink.com 1.10,2013-06-01 11:38:00,
2013-06-01 04:53:00,77.3,34.0,29.70,NNW,340,1.0,3.0,21,0.00,,,0.00,weatherlink.com 1.10,2013-06-01 11:53:00,
2013-06-01 05:09:00,77.4,32.0,29.70,WNW,288,2.0,4.0,19,0.00,,,0.00,weatherlink.com 1.10,2013-06-01 12:09:00,
2013-06-01 05:23:00,77.3,34.0,29.71,NE,41,3.0,3.0,21,0.00,,,0.00,weatherlink.com 1.10,2013-06-01 12:23:00,
2013-06-01 05:38:00,76.6,33.0,29.71,NNE,28,0.0,3.0,20,0.00,,,0.00,weatherlink.com 1.10,2013-06-01 12:38:00,
2013-06-01 05:53:00,75.3,35.0,29.72,NE,41,2.0,3.0,23,0.00,,,0.00,weatherlink.com 1.10,2013-06-01 12:53:00,
2013-06-01 06:08:00,76.0,36.0,29.72,ENE,73,1.0,2.0,23,0.00,,,0.00,weatherlink.com 1.10,2013-06-01 13:08:00,
2013-06-01 06:23:00,77.7,37.0,29.73,ENE,58,1.0,2.0,23,0.00,,,0.00,weatherlink.com 1.10,2013-06-01 13:23:00,
2013-06-01 06:38:00,79.8,38.0,29.73,ENE,68,1.0,1.0,22,0.00,,,0.00,weatherlink.com 1.10,2013-06-01 13:38:00,
2013-06-01 06:53:00,81.3,38.0,29.73,ENE,69,0.0,1.0,21,0.00,,,0.00,weatherlink.com 1.10,2013-06-01 13:53:00,
2013-06-01 07:08:00,83.0,39.0,29.74,ENE,69,0.0,1.0,21,0.00,,,0.00,weatherlink.com 1.10,2013-06-01 14:08:00,
2013-06-01 07:23:00,84.1,36.0,29.74,ESE,105,0.0,1.0,18,0.00,,,0.00,weatherlink.com 1.10,2013-06-01 14:23:00,
2013-06-01 07:38:00,85.4,34.0,29.74,WSW,252,0.0,1.0,16,0.00,,,0.00,weatherlink.com 1.10,2013-06-01 14:38:00,
2013-06-01 07:53:00,86.6,35.0,29.74,SW,229,2.0,3.0,16,0.00,,,0.00,weatherlink.com 1.10,2013-06-01 14:53:00,
2013-06-01 08:08:00,88.1,25.0,29.75,West,263,5.0,8.0,10,0.00,,,0.00,weatherlink.com 1.10,2013-06-01 15:08:00,
2013-06-01 08:23:00,88.7,23.0,29.75,West,280,3.0,8.0,9,0.00,,,0.00,weatherlink.com 1.10,2013-06-01 15:23:00,
2013-06-01 08:38:00,89.7,24.0,29.75,WNW,293,6.0,11.0,9,0.00,,,0.00,weatherlink.com 1.10,2013-06-01 15:38:00,
2013-06-01 08:53:00,90.7,22.0,29.75,WNW,302,7.0,11.0,8,0.00,,,0.00,weatherlink.com 1.10,2013-06-01 15:53:00,
2013-06-01 09:08:00,91.2,22.0,29.75,West,281,6.0,13.0,8,0.00,,,0.00,weatherlink.com 1.10,2013-06-01 16:08:00,
2013-06-01 09:23:00,92.0,23.0,29.74,WNW,287,8.0,17.0,8,0.00,,,0.00,weatherlink.com 1.10,2013-06-01 16:23:00,
2013-06-01 09:39:00,93.2,20.0,29.74,WNW,289,9.0,18.0,7,0.00,,,0.00,weatherlink.com 1.10,2013-06-01 16:39:00,
2013-06-01 09:54:00,94.3,18.0,29.73,NW,309,9.0,16.0,6,0.00,,,0.00,weatherlink.com 1.10,2013-06-01 16:54:00,
2013-06-01 10:09:00,95.1,18.0,29.74,WNW,301,7.0,14.0,6,0.00,,,0.00,weatherlink.com 1.10,2013-06-01 17:09:00,
2013-06-01 10:24:00,96.5,15.0,29.74,WNW,285,10.0,15.0,5,0.00,,,0.00,weatherlink.com 1.10,2013-06-01 17:24:00,
2013-06-01 10:39:00,97.0,15.0,29.73,West,259,11.0,15.0,5,0.00,,,0.00,weatherlink.com 1.10,2013-06-01 17:39:00,
2013-06-01 10:54:00,98.0,16.0,29.73,WNW,293,9.0,14.0,5,0.00,,,0.00,weatherlink.com 1.10,2013-06-01 17:54:00,
2013-06-01 11:09:00,98.3,16.0,29.73,West,271,8.0,17.0,5,0.00,,,0.00,weatherlink.com 1.10,2013-06-01 18:09:00,
2013-06-01 11:24:00,99.5,12.0,29.73,WSW,255,8.0,15.0,4,0.00,,,0.00,weatherlink.com 1.10,2013-06-01 18:24:00,
2013-06-01 11:39:00,99.7,12.0,29.72,West,274,9.0,15.0,4,0.00,,,0.00,weatherlink.com 1.10,2013-06-01 18:39:00,
2013-06-01 11:54:00,100.3,13.0,29.72,WNW,290,7.0,16.0,4,0.00,,,0.00,weatherlink.com 1.10,2013-06-01 18:54:00,
2013-06-01 12:09:00,100.6,13.0,29.72,WNW,294,14.0,16.0,4,0.00,,,0.00,weatherlink.com 1.10,2013-06-01 19:09:00,
2013-06-01 12:24:00,100.5,6.0,29.71,WNW,288,4.0,12.0,3,0.00,,,0.00,weatherlink.com 1.10,2013-06-01 19:24:00,
2013-06-01 12:39:00,102.2,7.0,29.70,WNW,283,9.0,14.0,3,0.00,,,0.00,weatherlink.com 1.10,2013-06-01 19:39:00,
2013-06-01 12:54:00,101.6,7.0,29.70,WSW,252,4.0,16.0,3,0.00,,,0.00,weatherlink.com 1.10,2013-06-01 19:54:00,
2013-06-01 13:09:00,102.5,8.0,29.70,WSW,245,11.0,12.0,3,0.00,,,0.00,weatherlink.com 1.10,2013-06-01 20:09:00,
2013-06-01 13:24:00,103.5,8.0,29.69,SW,226,5.0,13.0,3,0.00,,,0.00,weatherlink.com 1.10,2013-06-01 20:24:00,
2013-06-01 13:39:00,103.9,15.0,29.69,SW,228,4.0,10.0,4,0.00,,,0.00,weatherlink.com 1.10,2013-06-01 20:39:00,
2013-06-01 13:54:00,104.8,9.0,29.68,WNW,302,6.0,10.0,3,0.00,,,0.00,weatherlink.com 1.10,2013-06-01 20:54:00,
2013-06-01 14:09:00,104.7,16.0,29.67,WSW,256,6.0,10.0,4,0.00,,,0.00,weatherlink.com 1.10,2013-06-01 21:09:00,
2013-06-01 14:24:00,104.2,15.0,29.67,WSW,239,4.0,8.0,4,0.00,,,0.00,weatherlink.com 1.10,2013-06-01 21:24:00,
2013-06-01 14:39:00,104.1,15.0,29.66,WSW,239,1.0,7.0,4,0.00,,,0.00,weatherlink.com 1.10,2013-06-01 21:39:00,
2013-06-01 14:54:00,103.9,15.0,29.66,NW,312,3.0,9.0,4,0.00,,,0.00,weatherlink.com 1.10,2013-06-01 21:54:00,
2013-06-01 15:09:00,104.0,20.0,29.65,South,179,1.0,9.0,5,0.00,,,0.00,weatherlink.com 1.10,2013-06-01 22:09:00,
2013-06-01 15:24:00,104.1,21.0,29.64,WNW,285,2.0,5.0,5,0.00,,,0.00,weatherlink.com 1.10,2013-06-01 22:24:00,
2013-06-01 15:39:00,104.9,21.0,29.64,West,269,2.0,7.0,5,0.00,,,0.00,weatherlink.com 1.10,2013-06-01 22:39:00,
2013-06-01 15:54:00,105.0,21.0,29.63,West,261,5.0,13.0,5,0.00,,,0.00,weatherlink.com 1.10,2013-06-01 22:54:00,
2013-06-01 16:09:00,105.8,16.0,29.63,West,262,3.0,8.0,4,0.00,,,0.00,weatherlink.com 1.10,2013-06-01 23:09:00,
2013-06-01 16:24:00,107.4,18.0,29.62,SW,224,3.0,5.0,4,0.00,,,0.00,weatherlink.com 1.10,2013-06-01 23:24:00,
2013-06-01 16:40:00,106.2,17.0,29.62,SW,236,8.0,9.0,4,0.00,,,0.00,weatherlink.com 1.10,2013-06-01 23:40:00,
2013-06-01 16:55:00,105.6,10.0,29.62,SW,236,2.0,6.0,3,0.00,,,0.00,weatherlink.com 1.10,2013-06-01 23:55:00,
2013-06-01 17:10:00,104.8,16.0,29.61,WSW,240,4.0,6.0,4,0.00,,,0.00,weatherlink.com 1.10,2013-06-02 00:10:00,
2013-06-01 17:25:00,104.4,15.0,29.61,WSW,254,3.0,6.0,4,0.00,,,0.00,weatherlink.com 1.10,2013-06-02 00:25:00,
2013-06-01 17:40:00,104.1,15.0,29.61,WSW,257,3.0,5.0,4,0.00,,,0.00,weatherlink.com 1.10,2013-06-02 00:40:00,
2013-06-01 17:55:00,103.8,15.0,29.60,WNW,285,2.0,5.0,4,0.00,,,0.00,weatherlink.com 1.10,2013-06-02 00:55:00,
2013-06-01 18:10:00,103.6,15.0,29.60,West,275,2.0,2.0,4,0.00,,,0.00,weatherlink.com 1.10,2013-06-02 01:10:00,
2013-06-01 18:25:00,104.4,9.0,29.60,WSW,241,3.0,4.0,3,0.00,,,0.00,weatherlink.com 1.10,2013-06-02 01:25:00,
2013-06-01 18:40:00,105.0,9.0,29.60,West,274,2.0,3.0,3,0.00,,,0.00,weatherlink.com 1.10,2013-06-02 01:40:00,
2013-06-01 18:55:00,105.6,10.0,29.60,West,266,0.0,3.0,3,0.00,,,0.00,weatherlink.com 1.10,2013-06-02 01:55:00,
2013-06-01 19:10:00,103.8,15.0,29.60,WNW,290,0.0,3.0,4,0.00,,,0.00,weatherlink.com 1.10,2013-06-02 02:10:00,
2013-06-01 19:25:00,102.4,14.0,29.60,West,272,0.0,3.0,4,0.00,,,0.00,weatherlink.com 1.10,2013-06-02 02:25:00,
2013-06-01 19:40:00,101.3,13.0,29.60,WNW,284,0.0,1.0,4,0.00,,,0.00,weatherlink.com 1.10,2013-06-02 02:40:00,
2013-06-01 19:55:00,100.1,18.0,29.60,North,9,2.0,2.0,5,0.00,,,0.00,weatherlink.com 1.10,2013-06-02 02:55:00,
2013-06-01 20:10:00,98.4,21.0,29.60,NNE,17,2.0,3.0,6,0.00,,,0.00,weatherlink.com 1.10,2013-06-02 03:10:00,
2013-06-01 20:25:00,96.2,19.0,29.60,NNE,31,4.0,4.0,6,0.00,,,0.00,weatherlink.com 1.10,2013-06-02 03:25:00,
2013-06-01 20:40:00,95.1,22.0,29.60,NE,34,5.0,6.0,7,0.00,,,0.00,weatherlink.com 1.10,2013-06-02 03:40:00,
2013-06-01 20:55:00,94.4,21.0,29.60,NNE,31,4.0,5.0,7,0.00,,,0.00,weatherlink.com 1.10,2013-06-02 03:55:00,
2013-06-01 21:10:00,93.9,17.0,29.60,NNE,28,4.0,5.0,6,0.00,,,0.00,weatherlink.com 1.10,2013-06-02 04:10:00,
2013-06-01 21:25:00,93.4,20.0,29.61,NNE,20,3.0,6.0,7,0.00,,,0.00,weatherlink.com 1.10,2013-06-02 04:25:00,
2013-06-01 21:40:00,93.0,20.0,29.61,NNE,28,4.0,6.0,7,0.00,,,0.00,weatherlink.com 1.10,2013-06-02 04:40:00,
2013-06-01 21:55:00,92.7,20.0,29.61,NNE,28,4.0,6.0,7,0.00,,,0.00,weatherlink.com 1.10,2013-06-02 04:55:00,
2013-06-01 22:10:00,91.9,19.0,29.62,SW,226,1.0,3.0,7,0.00,,,0.00,weatherlink.com 1.10,2013-06-02 05:10:00,
2013-06-01 22:25:00,92.5,20.0,29.62,NNE,32,2.0,3.0,7,0.00,,,0.00,weatherlink.com 1.10,2013-06-02 05:25:00,
2013-06-01 22:40:00,91.8,19.0,29.62,NNE,32,3.0,5.0,7,0.00,,,0.00,weatherlink.com 1.10,2013-06-02 05:40:00,
2013-06-01 22:55:00,90.0,21.0,29.61,NNE,25,4.0,5.0,8,0.00,,,0.00,weatherlink.com 1.10,2013-06-02 05:55:00,
2013-06-01 23:10:00,89.7,21.0,29.62,NW,319,4.0,6.0,8,0.00,,,0.00,weatherlink.com 1.10,2013-06-02 06:10:00,
2013-06-01 23:25:00,89.7,21.0,29.62,NNE,29,2.0,4.0,8,0.00,,,0.00,weatherlink.com 1.10,2013-06-02 06:25:00,
2013-06-01 23:40:00,88.8,20.0,29.61,NE,34,3.0,4.0,8,0.00,,,0.00,weatherlink.com 1.10,2013-06-02 06:40:00,
2013-06-01 23:55:00,88.3,20.0,29.61,NNE,31,5.0,5.0,8,0.00,,,0.00,weatherlink.com 1.10,2013-06-02 06:55:00,